Location: Newark
(49.8969°N, 3.3422°E)
Time: 11:20:29
(UTC+00:00)

deb Explorer IX - Pass Details

Date: 25 January 2020
Orbit: 549 x 1099 km, 38.8° (Epoch: 25 February)

Event Time Altitude Azimuth Distance (km) Brightness Sun altitude
Rises 22:54:48 0° 243° (WSW) 3,826 - -56.5°
Reaches altitude 10° 22:57:45 10° 235° (SW) 2,912 - -56.7°
Maximum altitude 23:04:03 33° 174° (S) 1,744 - -57.1°
Drops below altitude 10° 23:10:21 10° 114° (ESE) 2,913 - -57.5°
Sets 23:13:17 0° 105° (ESE) 3,827 - -57.7°
